Regional Weather Roundup
Issued by NWS

Home | Current Version | Previous Version | Graphics & Text | Print | Product List | Glossary On
Versions: 1 2 3 4 5 6 7 8 9 10 11 12 13 14 15 16 17 18 19 20 21 22 23 24 25 26 27 28 29 30 31 32 33 34 35 36 37 38 39 40 41 42 43 44 45 46 47 48 49 50
000
ASUS43 KFSD 272202
RWRSD

WEATHER ROUNDUP FOR SOUTH DAKOTA
NATIONAL WEATHER SERVICE SIOUX FALLS SD
400 PM CST THU NOV 27 2014

NOTE: "FAIR" INDICATES FEW OR NO CLOUDS BELOW 12,000 FEET WITH NO
SIGNIFICANT WEATHER AND/OR OBSTRUCTIONS TO VISIBILITY.


SDZ001>005-009-010-012>017-272300-
NORTHWEST AND NORTH CENTRAL SOUTH DAKOTA

CITY           SKY/WX    TMP DP  RH WIND       PRES   REMARKS
BUFFALO          N/A     31  23  72 S12       29.79F WCI  22
FAITH            N/A     25  18  74 S16       29.91F WCI  12
MOBRIDGE       CLOUDY    17  11  77 SE18      30.02F WCI   1
$$

SDZ012>016-024>037-041>051-057-063-072>074-272300-
SOUTHWEST AND SOUTH CENTRAL SOUTH DAKOTA

CITY           SKY/WX    TMP DP  RH WIND       PRES   REMARKS
RAPID CTY ARPT MOSUNNY   36  28  73 SE9       29.89F
PIERRE         CLOUDY    24  15  68 SE14      30.04F WCI  12
CUSTER         MOSUNNY   47  25  42 W10       29.94F
ELLSWORTH AFB  SUNNY     37  29  73 S6        29.88F
PHILIP         FLURRIES  35  22  58 E9        29.95F WCI  28
PINE RIDGE     PTSUNNY   50  32  50 W3        29.94S
WINNER         CLOUDY    36  19  50 SE14      30.03F
$$

SDZ004>011-016>023-039-040-272300-
NORTHEAST SOUTH DAKOTA

CITY           SKY/WX    TMP DP  RH WIND       PRES   REMARKS
ABERDEEN       CLOUDY    13   4  67 SE10      30.20F WCI   0
WATERTOWN      FLURRIES  10   1  67 SE12      30.20F WCI  -5
SISSETON         N/A      5  -3  69 S13       30.28F WCI -12
$$

SDZ017-020-022-023-036>040-048>070-272300-
SOUTHEAST SOUTH DAKOTA

CITY           SKY/WX    TMP DP  RH WIND       PRES   REMARKS
SIOUX FALLS    CLOUDY    11   1  64 SE13      30.27F WCI  -4
HURON          CLOUDY    14   4  64 SE15G22   30.20F WCI  -1
MITCHELL       CLOUDY    15   7  70 SE16      30.23F WCI  -1
YANKTON        PTCLDY    18   9  68 SE12      30.26F WCI   5
$$

ABBREVIATIONS USED IN REMARKS
   TC - TEMPERATURE IN CELSIUS
  WCI - WIND CHILL INDEX
   HX - HEAT INDEX
  VSB - VISIBILITY



USA.gov is the U.S. government's official web portal to all federal, state and local government web resources and services.